JES3108 SABE-SACO

Flight info

Callsign JES3108
Flight time 1h 2m
Altitude 34000
Route ATOVO4B ATOVO UW5 ASISA ASISA1Q
Aircraft A320/M-SDE3FGHIRWY/LB1

Departure

Time 2026-05-03 20:25
Airport Aeroparque Jorge Newbery (SABE)

Arrival

Time 2026-05-03 21:28
Airport Ingeniero Aeronáutico Ambrosio L.V. Taravella International Airport (SACO)
Time Latitude Longitude Altitude Speed Heading
2026-05-03 20:15 -34.55840 -58.41180 25 ft 0 kts 40°
2026-05-03 20:16 -34.55849 -58.41188 46 ft 2 kts 37°
2026-05-03 20:16 -34.55862 -58.41199 53 ft 2 kts 25°
2026-05-03 20:16 -34.55878 -58.41205 28 ft 2 kts 340°
2026-05-03 20:17 -34.55892 -58.41195 28 ft 2 kts 311°
2026-05-03 20:17 -34.55897 -58.41188 24 ft 1 kts 309°
2026-05-03 20:19 -34.55895 -58.41191 24 ft 2 kts 310°
2026-05-03 20:20 -34.55882 -58.41209 28 ft 4 kts 311°
2026-05-03 20:20 -34.55862 -58.41244 26 ft 6 kts 291°
2026-05-03 20:20 -34.55882 -58.41291 24 ft 7 kts 222°
2026-05-03 20:20 -34.55917 -58.41305 24 ft 6 kts 172°
2026-05-03 20:21 -34.55950 -58.41264 24 ft 8 kts 124°
2026-05-03 20:21 -34.55986 -58.41203 25 ft 10 kts 127°
2026-05-03 20:21 -34.56030 -58.41132 26 ft 11 kts 127°
2026-05-03 20:21 -34.56078 -58.41053 25 ft 12 kts 127°
2026-05-03 20:22 -34.56131 -58.40968 25 ft 13 kts 127°
2026-05-03 20:22 -34.56192 -58.40877 25 ft 15 kts 128°
2026-05-03 20:22 -34.56257 -58.40779 24 ft 15 kts 128°
2026-05-03 20:22 -34.56311 -58.40691 24 ft 11 kts 124°
2026-05-03 20:23 -34.56350 -58.40623 24 ft 10 kts 124°
2026-05-03 20:23 -34.56385 -58.40560 26 ft 8 kts 123°
2026-05-03 20:23 -34.56418 -58.40497 26 ft 10 kts 123°
2026-05-03 20:23 -34.56466 -58.40430 28 ft 11 kts 151°
2026-05-03 20:24 -34.56527 -58.40476 24 ft 12 kts 258°
2026-05-03 20:24 -34.56499 -58.40544 24 ft 0 kts 305°
2026-05-03 20:24 -34.56496 -58.40549 24 ft 5 kts 305°
2026-05-03 20:24 -34.56335 -58.40830 26 ft 78 kts 305°
2026-05-03 20:25 -34.55917 -58.41583 21 ft 134 kts 304°
2026-05-03 20:25 -34.55354 -58.42607 410 ft 148 kts 303°
2026-05-03 20:25 -34.54797 -58.43661 1059 ft 149 kts 308°
2026-05-03 20:25 -34.54112 -58.44603 1709 ft 150 kts 323°
2026-05-03 20:26 -34.53222 -58.45338 2107 ft 163 kts 334°
2026-05-03 20:26 -34.52115 -58.45864 2492 ft 179 kts 345°
2026-05-03 20:26 -34.50806 -58.46033 2805 ft 202 kts
2026-05-03 20:26 -34.49333 -58.45667 3118 ft 232 kts 19°
2026-05-03 20:27 -34.47898 -58.44585 3657 ft 253 kts 34°
2026-05-03 20:27 -34.46352 -58.43585 4428 ft 255 kts
2026-05-03 20:27 -34.44611 -58.43724 5209 ft 255 kts 335°
2026-05-03 20:27 -34.43184 -58.45004 5846 ft 260 kts 309°
2026-05-03 20:28 -34.42269 -58.46876 6202 ft 261 kts 297°
2026-05-03 20:28 -34.41372 -58.48786 7064 ft 262 kts 300°
2026-05-03 20:28 -34.40406 -58.50650 7961 ft 262 kts 302°
2026-05-03 20:28 -34.39404 -58.52507 8810 ft 264 kts 302°
2026-05-03 20:29 -34.38386 -58.54366 9675 ft 266 kts 302°
2026-05-03 20:29 -34.37354 -58.56221 10505 ft 266 kts 302°
2026-05-03 20:29 -34.36312 -58.58105 11110 ft 276 kts 301°
2026-05-03 20:29 -34.35235 -58.60121 11392 ft 295 kts 301°
2026-05-03 20:30 -34.34113 -58.62286 11721 ft 312 kts 300°
2026-05-03 20:30 -34.32954 -58.64561 12225 ft 321 kts 300°
2026-05-03 20:30 -34.31763 -58.66859 12910 ft 324 kts 300°
2026-05-03 20:30 -34.30548 -58.69172 13564 ft 329 kts 300°
2026-05-03 20:31 -34.29308 -58.71517 14171 ft 333 kts 300°
2026-05-03 20:31 -34.28052 -58.73884 14746 ft 336 kts 300°
2026-05-03 20:31 -34.26920 -58.76349 15319 ft 336 kts 291°
2026-05-03 20:31 -34.26009 -58.78967 15909 ft 338 kts 290°
2026-05-03 20:32 -34.25096 -58.81639 16502 ft 341 kts 290°
2026-05-03 20:32 -34.24180 -58.84298 17088 ft 344 kts 290°
2026-05-03 20:32 -34.23250 -58.86973 17689 ft 346 kts 290°
2026-05-03 20:32 -34.22319 -58.89625 18270 ft 349 kts 290°
2026-05-03 20:33 -34.21360 -58.92333 18791 ft 352 kts 290°
2026-05-03 20:33 -34.20704 -58.94173 19140 ft 354 kts 290°
2026-05-03 20:33 -34.19437 -58.96747 19638 ft 363 kts 305°
2026-05-03 20:33 -34.17772 -58.99072 20148 ft 367 kts 307°
2026-05-03 20:34 -34.16079 -59.01396 20674 ft 370 kts 307°
2026-05-03 20:34 -34.14370 -59.03734 21153 ft 372 kts 307°
2026-05-03 20:34 -34.12653 -59.06087 21631 ft 375 kts 307°
2026-05-03 20:34 -34.10927 -59.08457 22096 ft 378 kts 306°
2026-05-03 20:35 -34.09183 -59.10848 22563 ft 381 kts 306°
2026-05-03 20:35 -34.07429 -59.13254 23020 ft 383 kts 306°
2026-05-03 20:35 -34.05667 -59.15672 23488 ft 386 kts 306°
2026-05-03 20:35 -34.03915 -59.18135 23898 ft 388 kts 305°
2026-05-03 20:36 -34.02178 -59.20635 24281 ft 390 kts 304°
2026-05-03 20:36 -34.00446 -59.23161 24661 ft 392 kts 304°
2026-05-03 20:36 -33.98706 -59.25706 25025 ft 394 kts 304°
2026-05-03 20:36 -33.96953 -59.28261 25418 ft 397 kts 304°
2026-05-03 20:37 -33.95182 -59.30820 25807 ft 399 kts 304°
2026-05-03 20:37 -33.93398 -59.33386 26172 ft 401 kts 304°
2026-05-03 20:37 -33.91597 -59.35968 26544 ft 403 kts 304°
2026-05-03 20:37 -33.89789 -59.38559 26915 ft 405 kts 304°
2026-05-03 20:38 -33.87980 -59.41155 27269 ft 408 kts 304°
2026-05-03 20:38 -33.86150 -59.43781 27624 ft 410 kts 304°
2026-05-03 20:38 -33.84311 -59.46419 27979 ft 412 kts 304°
2026-05-03 20:38 -33.82466 -59.49064 28341 ft 414 kts 304°
2026-05-03 20:39 -33.80774 -59.51489 28664 ft 416 kts 304°
2026-05-03 20:39 -33.78905 -59.54160 29028 ft 418 kts 303°
2026-05-03 20:39 -33.77027 -59.56843 29386 ft 421 kts 303°
2026-05-03 20:39 -33.75136 -59.59545 29746 ft 423 kts 303°
2026-05-03 20:40 -33.73240 -59.62248 30097 ft 425 kts 303°
2026-05-03 20:40 -33.71321 -59.64977 30399 ft 428 kts 303°
2026-05-03 20:40 -33.69396 -59.67712 30695 ft 429 kts 303°
2026-05-03 20:40 -33.67466 -59.70452 30859 ft 429 kts 303°
2026-05-03 20:41 -33.65543 -59.73180 30986 ft 428 kts 303°
2026-05-03 20:41 -33.63621 -59.75906 31139 ft 428 kts 303°
2026-05-03 20:41 -33.61703 -59.78626 31286 ft 427 kts 303°
2026-05-03 20:41 -33.59786 -59.81346 31430 ft 427 kts 303°
2026-05-03 20:42 -33.57869 -59.84060 31571 ft 427 kts 303°
2026-05-03 20:42 -33.55945 -59.86779 31719 ft 426 kts 303°
2026-05-03 20:42 -33.54034 -59.89478 31867 ft 426 kts 303°
2026-05-03 20:42 -33.52109 -59.92193 32004 ft 426 kts 303°
2026-05-03 20:43 -33.50191 -59.94899 32161 ft 425 kts 303°
2026-05-03 20:43 -33.48277 -59.97601 32309 ft 425 kts 303°
2026-05-03 20:43 -33.46372 -60.00296 32457 ft 425 kts 303°
2026-05-03 20:43 -33.44462 -60.02992 32609 ft 424 kts 303°
2026-05-03 20:44 -33.42551 -60.05682 32761 ft 424 kts 303°
2026-05-03 20:44 -33.40640 -60.08361 32921 ft 424 kts 303°
2026-05-03 20:44 -33.38724 -60.11045 33061 ft 423 kts 303°
2026-05-03 20:44 -33.36812 -60.13724 33224 ft 423 kts 303°
2026-05-03 20:45 -33.34912 -60.16385 33379 ft 422 kts 303°
2026-05-03 20:45 -33.33001 -60.19059 33530 ft 422 kts 303°
2026-05-03 20:45 -33.31090 -60.21732 33685 ft 422 kts 303°
2026-05-03 20:45 -33.29163 -60.24426 33850 ft 421 kts 303°
2026-05-03 20:46 -33.27257 -60.27088 34018 ft 421 kts 303°
2026-05-03 20:46 -33.23472 -60.32379 34071 ft 417 kts 302°
2026-05-03 20:47 -33.19710 -60.37642 34070 ft 417 kts 302°
2026-05-03 20:47 -33.15939 -60.42904 34067 ft 417 kts 302°
2026-05-03 20:48 -33.12200 -60.48102 34065 ft 417 kts 303°
2026-05-03 20:48 -33.08415 -60.53351 34061 ft 417 kts 303°
2026-05-03 20:49 -33.04625 -60.58598 34058 ft 417 kts 303°
2026-05-03 20:49 -33.00850 -60.63842 34061 ft 417 kts 303°
2026-05-03 20:50 -32.97063 -60.69086 34060 ft 418 kts 303°
2026-05-03 20:50 -32.93267 -60.74322 34063 ft 418 kts 303°
2026-05-03 20:51 -32.89719 -60.79723 34058 ft 407 kts 292°
2026-05-03 20:51 -32.86881 -60.85526 34059 ft 407 kts 293°
2026-05-03 20:52 -32.83994 -60.91348 34058 ft 407 kts 293°
2026-05-03 20:52 -32.81113 -60.97149 34056 ft 407 kts 293°
2026-05-03 20:53 -32.78242 -61.02945 34056 ft 407 kts 293°
2026-05-03 20:53 -32.75367 -61.08740 34055 ft 407 kts 293°
2026-05-03 20:54 -32.72492 -61.14526 34057 ft 407 kts 293°
2026-05-03 20:54 -32.68172 -61.23197 34056 ft 407 kts 293°
2026-05-03 20:55 -32.65287 -61.28966 34051 ft 406 kts 293°
2026-05-03 20:55 -32.62409 -61.34742 34049 ft 406 kts 293°
2026-05-03 20:56 -32.59532 -61.40506 34057 ft 406 kts 293°
2026-05-03 20:56 -32.56643 -61.46265 34050 ft 406 kts 294°
2026-05-03 20:57 -32.53747 -61.52015 34052 ft 406 kts 294°
2026-05-03 20:57 -32.50856 -61.57754 34049 ft 406 kts 294°
2026-05-03 20:58 -32.47965 -61.63493 34045 ft 406 kts 294°
2026-05-03 20:58 -32.45075 -61.69233 34043 ft 405 kts 294°
2026-05-03 20:59 -32.42182 -61.74959 34044 ft 405 kts 294°
2026-05-03 20:59 -32.39288 -61.80684 34039 ft 405 kts 294°
2026-05-03 21:00 -32.37346 -61.84510 34040 ft 406 kts 294°
2026-05-03 21:00 -32.33480 -61.92114 34039 ft 405 kts 294°
2026-05-03 21:01 -32.30578 -61.97833 34039 ft 405 kts 294°
2026-05-03 21:01 -32.27679 -62.03543 34037 ft 405 kts 294°
2026-05-03 21:02 -32.24770 -62.09250 34037 ft 405 kts 294°
2026-05-03 21:02 -32.21859 -62.14941 34036 ft 405 kts 294°
2026-05-03 21:03 -32.18953 -62.20639 34037 ft 405 kts 294°
2026-05-03 21:03 -32.16053 -62.26319 33921 ft 402 kts 294°
2026-05-03 21:04 -32.14619 -62.29114 33658 ft 394 kts 294°
2026-05-03 21:04 -32.13206 -62.31862 33390 ft 389 kts 294°
2026-05-03 21:04 -32.11807 -62.34583 33118 ft 387 kts 294°
2026-05-03 21:04 -32.10420 -62.37280 32863 ft 382 kts 294°
2026-05-03 21:05 -32.09050 -62.39945 32467 ft 378 kts 294°
2026-05-03 21:05 -32.07693 -62.42587 32058 ft 375 kts 294°
2026-05-03 21:05 -32.06348 -62.45203 31646 ft 372 kts 294°
2026-05-03 21:05 -32.05012 -62.47801 31243 ft 369 kts 294°
2026-05-03 21:06 -32.03687 -62.50376 30849 ft 366 kts 294°
2026-05-03 21:06 -32.02351 -62.52970 30451 ft 364 kts 295°
2026-05-03 21:06 -32.01039 -62.55512 30061 ft 362 kts 295°
2026-05-03 21:06 -31.99736 -62.58034 29649 ft 359 kts 294°
2026-05-03 21:07 -31.98445 -62.60539 29270 ft 356 kts 295°
2026-05-03 21:07 -31.97169 -62.63015 28911 ft 352 kts 295°
2026-05-03 21:07 -31.95903 -62.65468 28566 ft 349 kts 295°
2026-05-03 21:07 -31.95072 -62.67071 28332 ft 346 kts 295°
2026-05-03 21:08 -31.93397 -62.70287 27865 ft 342 kts 295°
2026-05-03 21:08 -31.92167 -62.72655 27520 ft 338 kts 295°
2026-05-03 21:08 -31.90947 -62.75006 27179 ft 334 kts 295°
2026-05-03 21:08 -31.90146 -62.76551 26954 ft 332 kts 295°
2026-05-03 21:09 -31.88950 -62.78860 26607 ft 329 kts 295°
2026-05-03 21:09 -31.87819 -62.81040 26283 ft 326 kts 295°
2026-05-03 21:09 -31.86640 -62.83308 25933 ft 323 kts 295°
2026-05-03 21:09 -31.85470 -62.85553 25585 ft 321 kts 295°
2026-05-03 21:10 -31.83912 -62.88538 25119 ft 319 kts 295°
2026-05-03 21:10 -31.83149 -62.90007 24884 ft 318 kts 295°
2026-05-03 21:10 -31.82001 -62.92217 24528 ft 316 kts 295°
2026-05-03 21:10 -31.80854 -62.94418 24172 ft 315 kts 295°
2026-05-03 21:11 -31.79712 -62.96613 23804 ft 314 kts 295°
2026-05-03 21:11 -31.78570 -62.98802 23420 ft 314 kts 295°
2026-05-03 21:11 -31.77430 -63.00985 23038 ft 312 kts 295°
2026-05-03 21:11 -31.76299 -63.03149 22671 ft 310 kts 295°
2026-05-03 21:12 -31.75174 -63.05302 22312 ft 308 kts 296°
2026-05-03 21:12 -31.74055 -63.07439 21949 ft 307 kts 296°
2026-05-03 21:12 -31.72939 -63.09567 21590 ft 305 kts 296°
2026-05-03 21:12 -31.71829 -63.11686 21231 ft 304 kts 296°
2026-05-03 21:13 -31.70723 -63.13804 20867 ft 303 kts 296°
2026-05-03 21:13 -31.69623 -63.15908 20513 ft 303 kts 296°
2026-05-03 21:13 -31.68522 -63.18011 20148 ft 303 kts 296°
2026-05-03 21:13 -31.67417 -63.20118 19761 ft 303 kts 297°
2026-05-03 21:14 -31.66319 -63.22236 19375 ft 304 kts 296°
2026-05-03 21:14 -31.65281 -63.24396 18990 ft 304 kts 294°
2026-05-03 21:14 -31.64279 -63.26580 18604 ft 304 kts 294°
2026-05-03 21:14 -31.63286 -63.28779 18210 ft 305 kts 294°
2026-05-03 21:15 -31.62292 -63.30978 17794 ft 305 kts 294°
2026-05-03 21:15 -31.61292 -63.33174 17406 ft 305 kts 295°
2026-05-03 21:15 -31.60291 -63.35360 17028 ft 304 kts 295°
2026-05-03 21:15 -31.59286 -63.37542 16638 ft 304 kts 295°
2026-05-03 21:16 -31.58278 -63.39724 16249 ft 304 kts 295°
2026-05-03 21:16 -31.57268 -63.41906 15855 ft 304 kts 295°
2026-05-03 21:16 -31.56258 -63.44088 15481 ft 305 kts 296°
2026-05-03 21:16 -31.55246 -63.46275 15094 ft 305 kts 296°
2026-05-03 21:17 -31.54233 -63.48467 14705 ft 306 kts 296°
2026-05-03 21:17 -31.53548 -63.49946 14449 ft 307 kts 296°
2026-05-03 21:17 -31.52544 -63.53065 13509 ft 317 kts 280°
2026-05-03 21:17 -31.52097 -63.55616 12997 ft 319 kts 280°
2026-05-03 21:18 -31.51661 -63.58146 12597 ft 316 kts 280°
2026-05-03 21:18 -31.51227 -63.60667 12205 ft 314 kts 280°
2026-05-03 21:18 -31.50796 -63.63166 11817 ft 312 kts 280°
2026-05-03 21:18 -31.50366 -63.65650 11446 ft 310 kts 280°
2026-05-03 21:19 -31.49937 -63.68120 11070 ft 308 kts 280°
2026-05-03 21:19 -31.49512 -63.70573 10706 ft 307 kts 281°
2026-05-03 21:19 -31.49087 -63.73021 10315 ft 306 kts 281°
2026-05-03 21:19 -31.48666 -63.75432 10171 ft 297 kts 281°
2026-05-03 21:20 -31.48260 -63.77761 9983 ft 288 kts 281°
2026-05-03 21:20 -31.47861 -63.80044 9361 ft 285 kts 282°
2026-05-03 21:20 -31.47468 -63.82291 8889 ft 277 kts 283°
2026-05-03 21:20 -31.47090 -63.84454 8544 ft 266 kts 283°
2026-05-03 21:21 -31.46728 -63.86535 8228 ft 257 kts 284°
2026-05-03 21:21 -31.46367 -63.88586 7908 ft 257 kts 284°
2026-05-03 21:21 -31.46006 -63.90643 7591 ft 257 kts 285°
2026-05-03 21:21 -31.45644 -63.92695 7274 ft 257 kts 285°
2026-05-03 21:22 -31.45277 -63.94777 6949 ft 258 kts 285°
2026-05-03 21:22 -31.44918 -63.96807 6633 ft 259 kts 285°
2026-05-03 21:22 -31.44547 -63.98898 6347 ft 257 kts 285°
2026-05-03 21:22 -31.44199 -64.00878 6205 ft 240 kts 286°
2026-05-03 21:23 -31.43874 -64.02732 5863 ft 232 kts 286°
2026-05-03 21:23 -31.43558 -64.04570 5723 ft 228 kts 283°
2026-05-03 21:23 -31.43491 -64.06446 5559 ft 232 kts 275°
2026-05-03 21:23 -31.43495 -64.08340 5087 ft 231 kts 275°
2026-05-03 21:24 -31.43497 -64.10170 4953 ft 224 kts 276°
2026-05-03 21:24 -31.43498 -64.12004 4460 ft 222 kts 276°
2026-05-03 21:24 -31.43498 -64.13747 4216 ft 210 kts 276°
2026-05-03 21:24 -31.43382 -64.15393 4094 ft 197 kts 293°
2026-05-03 21:25 -31.42742 -64.16764 3978 ft 185 kts 316°
2026-05-03 21:25 -31.41754 -64.17662 3681 ft 177 kts 333°
2026-05-03 21:25 -31.40719 -64.18374 3410 ft 167 kts 333°
2026-05-03 21:25 -31.39760 -64.19041 3173 ft 153 kts 333°
2026-05-03 21:26 -31.38885 -64.19651 2954 ft 141 kts 334°
2026-05-03 21:26 -31.38055 -64.20228 2751 ft 137 kts 334°
2026-05-03 21:26 -31.37199 -64.20679 2530 ft 133 kts 352°
2026-05-03 21:26 -31.36274 -64.20759 2387 ft 135 kts
2026-05-03 21:27 -31.35331 -64.20771 2201 ft 136 kts
2026-05-03 21:27 -31.34379 -64.20769 2004 ft 137 kts
2026-05-03 21:27 -31.33423 -64.20791 1834 ft 137 kts
2026-05-03 21:27 -31.32467 -64.20804 1651 ft 136 kts
2026-05-03 21:28 -31.31579 -64.20817 1596 ft 109 kts
2026-05-03 21:28 -31.31151 -64.20821 1596 ft 34 kts
2026-05-03 21:28 -31.31044 -64.20825 1596 ft 6 kts 296°
2026-05-03 21:28 -31.31068 -64.20836 1596 ft 6 kts 176°
2026-05-03 21:29 -31.31133 -64.20832 1596 ft 13 kts 177°
2026-05-03 21:29 -31.31244 -64.20828 1596 ft 19 kts 178°
2026-05-03 21:29 -31.31394 -64.20831 1596 ft 24 kts 201°
2026-05-03 21:29 -31.31467 -64.20942 1595 ft 14 kts 266°
2026-05-03 21:30 -31.31468 -64.21020 1593 ft 4 kts 270°
2026-05-03 21:30 -31.31443 -64.21060 1592 ft 8 kts 331°
2026-05-03 21:30 -31.31395 -64.21077 1592 ft 3 kts 302°
2026-05-03 21:30 -31.31396 -64.21126 1591 ft 8 kts 271°
2026-05-03 21:31 -31.31395 -64.21192 1589 ft 4 kts 270°
2026-05-03 21:31 -31.31395 -64.21196 1589 ft 0 kts 270°